Location: Campestrin
(46.4667°N, 11.7167°E)
Time: 03:55:36
(UTC+00:00)

CSL-04 Rocket - Pass Details

Date: 18 April 2021
Orbit: 806 x 860 km, 98.9° (Epoch: 16 May)

Event Time Altitude Azimuth Distance (km) Brightness Sun altitude
Rises 18:44:20 0° 176° (S) 3,323 6.5 -7.1°
Reaches altitude 10° 18:46:43 10° 180° (S) 2,391 5.8 -7.5°
Maximum altitude 18:51:54 57° 259° (WSW) 951 4.3 -8.3°
Drops below altitude 10° 18:57:07 10° 338° (NNW) 2,399 6.9 -9.1°
Sets 18:59:30 0° 342° (NNW) 3,336 7.6 -9.5°
